Weather History for Thessaloniki, Greece

Change the Weather History Date:

Friday, January 18, 2013

  Actual Average Record
Temperature  
Mean Temperature 50 °F -  
Max Temperature 59 °F 50 °F 59 °F (2013)
Min Temperature 41 °F 35 °F 21 °F (2012)
Degree Days  
Heating Degree Days 15    
Moisture  
Dew Point 42 °F    
Average Humidity 79    
Maximum Humidity 87    
Minimum Humidity 55    
Precipitation  
Precipitation 0.01 in 0.05 in - ()
Sea Level Pressure  
Sea Level Pressure 29.41 in    
Wind  
Wind Speed 4 mph ()    
Max Wind Speed 18 mph    
Max Gust Speed -    
Visibility 6.2 miles    
Events Rain    
Averages and records for this station are not official NWS values.
T = Trace of Precipitation, MM = Missing Value Source: Averaged Metar Reports

Daily Weather History Graph

Daily Weather History Graph

Search for Another Location

Airport:

Trip Planner

Search our weather history database for the weather conditions in past years. The results will help you decide how hot, cold, wet, or windy it might be!

Date:

Astronomy

Jan. 18, 2013 Rise Set
Actual Time 7:48 AM EET 5:29 PM EET
Civil Twilight 7:18 AM EET 5:59 PM EET
Nautical Twilight 6:44 AM EET 6:32 PM EET
Astronomical Twilight 6:12 AM EET 7:05 PM EET
Moon 11:14 AM EET (1/18) 12:02 AM EET (1/18)
Length of Visible Light 10h 40m
Length of Day
9h 41m
Waxing Crescent, 44% of the Moon is Illuminated
Jan 18
Waxing Crescent
Jan 19
First Quarter
Jan 27
Full
Feb 3
Last Quarter
Feb 10
New

Hourly Weather History & Observations

Time (EET) Temp. Windchill Dew Point Humidity Pressure Visibility Wind Dir Wind Speed Gust Speed Precip Events Conditions
12:20 AM 48.2 °F - 42.8 °F 82% 29.56 in 6.2 mi West 5.8 mph - N/A   Mostly Cloudy
12:50 AM 48.2 °F - 42.8 °F 82% 29.53 in 6.2 mi West 5.8 mph - N/A   Mostly Cloudy
1:20 AM 46.4 °F - 42.8 °F 87% 29.53 in 6.2 mi Variable 2.3 mph - N/A   Mostly Cloudy
1:50 AM 46.4 °F - 42.8 °F 87% 29.53 in 6.2 mi Variable 2.3 mph - N/A   Mostly Cloudy
2:00 AM 47 °F - 42 °F 79% 29.54 in 6 mi 2.3 mph - -   Partly Cloudy
2:20 AM 46.4 °F - 42.8 °F 87% 29.50 in 6.2 mi Variable 2.3 mph - N/A   Mostly Cloudy
2:50 AM 46.4 °F - 42.8 °F 87% 29.50 in 6.2 mi Variable 2.3 mph - N/A   Mostly Cloudy
3:20 AM 48.2 °F - 44.6 °F 87% 29.47 in 6.2 mi Variable 3.5 mph - N/A   Mostly Cloudy
3:50 AM 48.2 °F - 42.8 °F 82% 29.47 in 6.2 mi Variable 2.3 mph - N/A   Mostly Cloudy
4:20 AM 48.2 °F - 44.6 °F 87% 29.44 in 6.2 mi Variable 2.3 mph - N/A   Mostly Cloudy
4:50 AM 48.2 °F - 44.6 °F 87% 29.44 in 6.2 mi Variable 2.3 mph - N/A   Mostly Cloudy
5:20 AM 48.2 °F - 44.6 °F 87% 29.44 in 6.2 mi WNW 11.5 mph - N/A   Mostly Cloudy
5:50 AM 48.2 °F - 42.8 °F 82% 29.44 in 6.2 mi NW 6.9 mph - N/A   Mostly Cloudy
6:20 AM 48.2 °F - 42.8 °F 82% 29.44 in 6.2 mi WNW 3.5 mph - N/A   Mostly Cloudy
6:50 AM 48.2 °F - 42.8 °F 82% 29.42 in 6.2 mi Variable 2.3 mph - N/A Rain Light Rain
7:20 AM 46.4 °F 45.2 °F 42.8 °F 87% 29.42 in 6.2 mi Variable 3.5 mph - N/A Rain Light Rain
7:50 AM 46.4 °F 45.2 °F 42.8 °F 87% 29.42 in 6.2 mi Variable 3.5 mph - N/A   Overcast
8:00 AM 47 °F - 43 °F 80% 29.42 in 6 mi 3.5 mph - - Rain Light Rain
8:20 AM 48.2 °F - 42.8 °F 82% 29.42 in 6.2 mi Variable 2.3 mph - N/A   Overcast
8:50 AM 48.2 °F - 42.8 °F 82% 29.39 in 6.2 mi West 6.9 mph - N/A   Mostly Cloudy
9:20 AM 48.2 °F - 42.8 °F 82% 29.39 in 6.2 mi Calm Calm - N/A Rain Light Rain
9:50 AM 48.2 °F - 42.8 °F 82% 29.39 in 6.2 mi Variable 3.5 mph - N/A   Mostly Cloudy
10:20 AM 48.2 °F - 42.8 °F 82% 29.39 in 6.2 mi WSW 4.6 mph - N/A   Mostly Cloudy
10:50 AM 48.2 °F - 42.8 °F 82% 29.42 in 6.2 mi Variable 3.5 mph - N/A   Mostly Cloudy
11:20 AM 50.0 °F - 44.6 °F 82% 29.39 in 6.2 mi East 4.6 mph - N/A   Mostly Cloudy
11:50 AM 53.6 °F - 44.6 °F 72% 29.39 in 6.2 mi South 4.6 mph - N/A   Mostly Cloudy
12:20 PM 51.8 °F - 44.6 °F 76% 29.39 in 6.2 mi Variable 3.5 mph - N/A   Mostly Cloudy
12:50 PM 50.0 °F - 44.6 °F 82% 29.36 in 6.2 mi Variable 2.3 mph - N/A Rain Light Rain
1:20 PM 51.8 °F - 46.4 °F 82% 29.36 in 6.2 mi SE 4.6 mph - N/A   Mostly Cloudy
1:50 PM 55.4 °F - 44.6 °F 67% 29.36 in 6.2 mi SE 6.9 mph - N/A   Mostly Cloudy
2:00 PM 55 °F - 45 °F 59% 29.36 in 6 mi SE 6.9 mph - -   Partly Cloudy
2:20 PM 55.4 °F - 44.6 °F 67% 29.33 in 6.2 mi SSE 4.6 mph - N/A   Mostly Cloudy
2:50 PM 59.0 °F - 42.8 °F 55% 29.33 in 6.2 mi South 8.1 mph - N/A   Mostly Cloudy
3:20 PM 55.4 °F - 44.6 °F 67% 29.33 in 6.2 mi WNW 13.8 mph - N/A   Mostly Cloudy
3:50 PM 51.8 °F - 42.8 °F 71% 29.36 in 6.2 mi WNW 18.4 mph - N/A   Mostly Cloudy
4:20 PM 50.0 °F - 41.0 °F 71% 29.36 in 6.2 mi NNW 13.8 mph - N/A   Light Drizzle
4:50 PM 50.0 °F - 39.2 °F 66% 29.36 in 6.2 mi North 9.2 mph - N/A   Mostly Cloudy
5:20 PM 50.0 °F - 37.4 °F 62% 29.36 in 6.2 mi Variable 3.5 mph - N/A   Mostly Cloudy
5:50 PM 50.0 °F - 39.2 °F 66% 29.36 in 6.2 mi Calm Calm - N/A   Mostly Cloudy
6:20 PM 48.2 °F - 39.2 °F 71% 29.39 in 6.2 mi Variable 3.5 mph - N/A   Mostly Cloudy
6:50 PM 46.4 °F 44.3 °F 39.2 °F 76% 29.39 in 6.2 mi South 4.6 mph - N/A Rain Light Rain
7:20 PM 44.6 °F 43.1 °F 37.4 °F 76% 29.39 in 6.2 mi Variable 3.5 mph - N/A   Scattered Clouds
7:50 PM 44.6 °F 42.2 °F 39.2 °F 81% 29.39 in 6.2 mi ESE 4.6 mph - N/A   Scattered Clouds
8:00 PM 45 °F - 39 °F 73% 29.39 in 6 mi ESE 4.6 mph - -   Partly Cloudy
8:20 PM 44.6 °F 42.2 °F 39.2 °F 81% 29.39 in 6.2 mi SE 4.6 mph - N/A   Scattered Clouds
8:50 PM 44.6 °F 42.2 °F 39.2 °F 81% 29.39 in 6.2 mi SE 4.6 mph - N/A   Scattered Clouds
9:20 PM 44.6 °F 42.2 °F 39.2 °F 81% 29.39 in 6.2 mi NE 4.6 mph - N/A   Scattered Clouds
9:50 PM 44.6 °F 42.2 °F 37.4 °F 76% 29.39 in 6.2 mi ENE 4.6 mph - N/A   Scattered Clouds
10:20 PM 44.6 °F 43.1 °F 39.2 °F 81% 29.39 in 6.2 mi Variable 3.5 mph - N/A   Scattered Clouds
10:50 PM 42.8 °F 41.1 °F 39.2 °F 87% 29.39 in 6.2 mi Variable 3.5 mph - N/A   Partly Cloudy
11:20 PM 41.0 °F 39.0 °F 35.6 °F 81% 29.39 in 6.2 mi Variable 3.5 mph - N/A   Partly Cloudy
11:50 PM 41.0 °F 39.0 °F 35.6 °F 81% 29.42 in 6.2 mi Variable 3.5 mph - N/A   Partly Cloudy